#timestamp,LO_Frequency,Hit,StdDev 
1511024415.0,286047013.2,N
1511024415.9,286047013.2,N
1511024435.8,286047014.0,N
1511024455.6,286047006.7,N
1511024475.4,286047005.4,N
1511024495.2,286047012.1,N
1511024515.1,286047010.8,N
1511024516.0,286047010.8,N
1511024535.8,286047010.3,N
1511024555.6,286047007.3,N
1511024575.5,286047010.4,N
1511024595.3,286047003.3,N
1511024615.1,286047006.4,N
1511024635.9,286047009.5,N
1511024655.7,286047009.2,N
1511024675.5,286047000.2,N
1511024695.4,286046998.7,N
1511024715.2,286046998.7,N
1511024735.0,286046998.9,N
1511024735.9,286046998.9,N
1511024755.8,286046992.5,N
1511024775.6,286046995.0,N
1511024795.4,286046992.2,N
1511024815.2,286046987.6,N
1511024835.1,286046984.9,N
1511024836.0,286046984.9,N
1511024855.8,286046985.8,N
1511024875.6,286046980.7,N
1511024895.5,286046978.6,N
1511024915.3,286046983.7,N
1511024935.1,286046982.8,N
1511024955.9,286046982.3,N
1511024975.7,286046978.5,N
1511024995.5,286046974.5,N
1511025015.4,286046978.8,N
1511025035.2,286046976.9,N
1511025055.0,286046978.2,N
1511025055.9,286046978.2,N
1511025075.8,286046981.8,N
1511025095.6,286046979.9,N
1511025115.4,286046976.0,N
1511025135.3,286046975.5,N
1511025155.1,286046972.2,N
1511025156.0,286046972.2,N
1511025175.8,286046973.5,N
1511025195.7,286046976.7,N
1511025215.5,286046975.8,N
1511025235.3,286046979.5,N
1511025255.1,286046980.3,N
1511025275.9,286046976.6,Y
1511025295.7,286046992.1,P
1511025315.6,286046993.2,N
1511025335.4,286046994.5,N
1511025355.2,286046992.0,N
1511025375.0,286046997.2,N
1511025375.9,286046997.2,N
1511025395.8,286047002.8,N
1511025415.6,286047005.6,N
1511025435.4,286047005.4,N
1511025455.3,286047000.7,N
1511025475.1,286046998.6,N
1511025495.8,286046997.6,N
1511025515.7,286046994.0,N
1511025535.5,286046992.4,N
1511025555.3,286046993.2,N
1511025575.2,286046992.0,N
1511025595.9,286046994.9,N
1511025615.7,286046993.5,N
1511025635.5,286046996.6,N
1511025655.4,286046995.1,N
1511025675.2,286046990.6,N
1511025695.0,286046994.4,N
1511025695.9,286046994.4,N
1511025715.8,286046990.7,N
1511025735.6,286046987.3,N
1511025755.4,286046982.1,Y
1511025775.3,286046992.5,P
1511025795.1,286046991.7,P
1511025815.8,286046990.1,P
1511025835.7,286046987.6,Y
1511025855.5,286046997.6,P
1511025875.3,286047001.0,N
1511025895.2,286046995.4,N
1511025915.9,286046996.1,N
1511025935.7,286046993.9,N
1511025955.6,286046988.0,Y
1511025975.4,286046996.7,P
1511025995.2,286047000.3,N
1511026015.1,286046999.0,N
1511026016.0,286046999.0,N
1511026035.8,286047002.7,N
1511026055.6,286047003.2,N
1511026075.5,286047000.4,N
1511026095.3,286046999.6,N
1511026115.1,286046992.1,Y
1511026135.9,286046990.3,P
1511026155.7,286046997.2,N
1511026175.5,286047001.4,N
1511026195.3,286047002.2,N
1511026215.2,286047004.7,N
1511026235.0,286047003.6,N
1511026235.9,286047003.6,N
1511026255.7,286047004.5,N
1511026275.6,286047007.2,N
1511026295.4,286047003.9,N
1511026315.2,286047004.5,N
1511026335.1,286047000.1,N
1511026336.0,286047000.1,N
1511026355.8,286047002.5,N
1511026375.6,286046999.7,N
1511026395.5,286047004.0,N
1511026415.3,286046995.7,N
1511026435.1,286046993.7,N
1511026455.9,286046995.9,N
1511026475.7,286046994.6,N
1511026495.5,286046994.7,N
1511026515.4,286046992.2,N
1511026535.2,286046991.3,N
1511026555.0,286046991.2,N
1511026555.9,286046991.2,N
1511026575.7,286046990.9,N
1511026595.6,286046985.9,N
1511026615.4,286046989.3,N
1511026635.2,286046994.3,N
1511026655.1,286046993.2,N
1511026656.0,286046993.2,N
1511026675.8,286046992.4,N
1511026695.6,286046992.1,N
1511026715.5,286046994.0,N
1511026735.3,286046993.9,N
1511026755.1,286046989.1,N
1511026775.9,286046988.9,N
1511026795.7,286046993.9,N
1511026815.5,286046995.1,N
1511026835.4,286046993.4,N
1511026855.2,286046992.4,N
1511026875.0,286046994.1,N
1511026875.9,286046994.1,N
1511026895.8,286046997.8,N
1511026915.6,286046996.6,N
1511026935.4,286046995.7,N
1511026955.2,286047000.7,N
1511026975.1,286047001.4,N
1511026976.0,286047001.4,N
1511026995.8,286047003.5,N
1511027015.6,286047005.9,N
1511027035.5,286047001.9,N
1511027055.3,286047002.9,N
1511027075.1,286047007.3,N
1511027095.9,286047012.4,N
1511027115.7,286047009.4,N
1511027135.5,286047011.2,N
1511027155.4,286047011.6,N
1511027175.2,286047014.0,N
1511027195.0,286047012.9,N
1511027195.9,286047012.9,N
1511027215.8,286047015.6,N
1511027235.6,286047013.5,N
1511027255.4,286047011.0,N
1511027275.3,286047006.2,N
1511027295.1,286047002.9,N
1511027296.0,286047002.9,N
1511027315.8,286047002.4,N
1511027335.6,286047002.7,N
1511027355.5,286047003.8,N
1511027375.3,286047008.0,N
1511027395.1,286047010.2,N
1511027415.9,286047007.5,N
1511027435.7,286047003.9,N
1511027455.5,286047004.4,N
1511027475.4,286047008.4,N
1511027495.2,286047010.4,N
1511027515.0,286047003.3,N
1511027515.9,286047003.3,N
1511027535.8,286047005.5,N
1511027555.6,286047008.0,N
1511027575.4,286047012.0,N
1511027595.3,286047010.5,N
1511027615.1,286047008.3,N
1511027616.0,286047008.3,N
1511027635.8,286047012.5,Y
1511027655.7,286047008.5,P
1511027675.5,286047006.2,P
1511027695.3,286047004.5,P
1511027715.2,286047005.5,Y
1511027735.9,286046996.1,P
1511027755.7,286046990.2,N
1511027775.6,286046988.0,N
1511027795.4,286046988.2,N
1511027815.2,286046989.7,N
1511027835.0,286046988.1,N
1511027836.0,286046988.1,N
1511027855.8,286046985.2,N
1511027875.6,286046984.8,N
1511027895.4,286046987.1,N
1511027915.3,286046997.6,N
1511027935.1,286046996.2,N
1511027955.8,286046990.1,N
1511027975.7,286046990.9,N
1511027995.5,286046987.4,N
